Powrót do katalogu

DELTA 1 R/B

AktywnyHEO
NORAD 738·ROCKET BODY·🇺🇸 United States

Wystrzelony Jan 21, 1964 z Cape Canaveral Space Force Station

Loading…

Następne Przeloty (najbliższe 24 godziny)

TLE

ŚwieżeSource: Space-Track

Epoka: Sep 14, 2026, 08:42 UTC

1 00738U 64003B   26257.36279974 -.00000024  00000-0  00000-0 0  9997
2 00738  46.4500 253.4655 2602338 113.7262 275.6555  7.39333515692073

Śledź DELTA 1 R/B w czasie rzeczywistym z AllMySat

Download on the App Store